Weather History for CYQL - January, 2013

Change the Weather History Date:

Wednesday, January 23, 2013

  Actual Average Record
Temperature  
Mean Temperature 18 °F -  
Max Temperature 24 °F 32 °F 59 °F (2005)
Min Temperature 12 °F 11 °F -31 °F (2015)
Degree Days  
Heating Degree Days 47    
Moisture  
Dew Point 11 °F    
Average Humidity 83    
Maximum Humidity 92    
Minimum Humidity 67    
Precipitation  
Precipitation 0.00 in 0.02 in - ()
Sea Level Pressure  
Sea Level Pressure 30.20 in    
Wind  
Wind Speed 6 mph ()    
Max Wind Speed 14 mph    
Max Gust Speed -    
Visibility 11.3 miles    
Events Snow    
Averages and records for this station are not official NWS values.
T = Trace of Precipitation, MM = Missing Value Source: Averaged Metar Reports

Daily Weather History Graph

Daily Weather History Graph

Search for Another Location

Airport or City:

Trip Planner

Search our weather history database for the weather conditions in past years. The results will help you decide how hot, cold, wet, or windy it might be!

Date:

Astronomy

Jan. 23, 2013 Rise Set
Actual Time 8:14 AM MST 5:12 PM MST
Civil Twilight 7:38 AM MST 5:47 PM MST
Nautical Twilight 6:59 AM MST 6:27 PM MST
Astronomical Twilight 6:21 AM MST 7:05 PM MST
Moon 2:21 PM MST (1/23) 5:33 AM MST (1/23)
Length of Visible Light 10h 09m
Length of Day
8h 57m
Waxing Gibbous, 89% of the Moon is Illuminated
Jan 23
Waxing Gibbous
Jan 26
Full
Feb 3
Last Quarter
Feb 10
New
Feb 17
First Quarter

Hourly Weather History & Observations

Time (MST) Temp. Windchill Dew Point Humidity Pressure Visibility Wind Dir Wind Speed Gust Speed Precip Events Conditions
12:00 AM 12.2 °F 1.7 °F 10.4 °F 92% 30.34 in 6.0 mi NE 6.9 mph - N/A Snow Light Snow
12:28 AM 12.2 °F 2.9 °F 10.4 °F 92% 30.33 in 9.0 mi East 5.8 mph - N/A   Overcast
12:40 AM 12.2 °F 2.9 °F 8.6 °F 85% 30.33 in 9.0 mi ENE 5.8 mph - N/A   Overcast
1:00 AM 12.2 °F 6.1 °F 8.6 °F 85% 30.35 in 9.0 mi ENE 3.5 mph - N/A   Overcast
1:11 AM 12.2 °F 6.1 °F 8.6 °F 85% 30.34 in 9.0 mi NE 3.5 mph - N/A Snow Light Snow
2:00 AM 12.2 °F 1.7 °F 8.6 °F 85% 30.34 in 9.0 mi ENE 6.9 mph - N/A Snow Light Snow
2:12 AM 12.2 °F 2.9 °F 8.6 °F 85% 30.32 in 9.0 mi ENE 5.8 mph - N/A   Overcast
2:14 AM 12.2 °F 2.9 °F 8.6 °F 85% 30.32 in 9.0 mi ENE 5.8 mph - N/A Snow Light Snow
2:36 AM 12.2 °F 4.3 °F 8.6 °F 85% 30.34 in 9.0 mi ENE 4.6 mph - N/A   Overcast
2:40 AM 12.2 °F 4.3 °F 8.6 °F 85% 30.33 in 9.0 mi ENE 4.6 mph - N/A Snow Light Snow
2:58 AM 12.2 °F 2.9 °F 8.6 °F 85% 30.34 in 9.0 mi East 5.8 mph - N/A   Overcast
3:00 AM 12.2 °F 2.9 °F 8.6 °F 85% 30.34 in 9.0 mi ENE 5.8 mph - N/A   Overcast
4:00 AM 12.2 °F 0.7 °F 8.6 °F 85% 30.32 in 9.0 mi East 8.1 mph - N/A   Overcast
5:00 AM 12 °F - 8 °F 79% 30.34 in 10 mi ESE 5.8 mph - -   Overcast
5:00 AM 12.2 °F 2.9 °F 8.6 °F 85% 30.33 in 9.0 mi East 5.8 mph - N/A   Overcast
5:19 AM 12.2 °F 0.7 °F 8.6 °F 85% 30.32 in 9.0 mi East 8.1 mph - N/A Snow Light Snow
5:37 AM 12.2 °F 1.7 °F 8.6 °F 85% 30.31 in 9.0 mi East 6.9 mph - N/A   Overcast
6:00 AM 12.2 °F 0.7 °F 8.6 °F 85% 30.32 in 15.0 mi East 8.1 mph - N/A   Overcast
6:33 AM 12.2 °F 0.7 °F 10.4 °F 92% 30.31 in 15.0 mi East 8.1 mph - N/A   Overcast
7:00 AM 12.2 °F 1.7 °F 10.4 °F 92% 30.30 in 10.0 mi East 6.9 mph - N/A   Overcast
8:00 AM 12.2 °F -0.2 °F 10.4 °F 92% 30.29 in 10.0 mi East 9.2 mph - N/A   Overcast
8:31 AM 12.2 °F -2.5 °F 10.4 °F 92% 30.27 in 10.0 mi East 12.7 mph - N/A   Overcast
9:00 AM 12.2 °F -1.8 °F 10.4 °F 92% 30.26 in 10.0 mi East 11.5 mph - N/A   Overcast
10:00 AM 14.0 °F 0.5 °F 10.4 °F 86% 30.26 in 10.0 mi East 11.5 mph - N/A   Overcast
11:00 AM 16 °F - 12 °F 75% 30.22 in 10 mi East 12.7 mph - -   Overcast
11:00 AM 15.8 °F 1.4 °F 12.2 °F 86% 30.22 in 10.0 mi East 13.8 mph - N/A   Overcast
12:00 PM 17.6 °F 5.7 °F 14.0 °F 86% 30.18 in 10.0 mi East 10.4 mph - N/A   Overcast
1:00 PM 21.2 °F 9.5 °F 14.0 °F 74% 30.14 in 15.0 mi ESE 11.5 mph - N/A   Mostly Cloudy
2:00 PM 23.0 °F 11.7 °F 15.8 °F 74% 30.10 in 15.0 mi SSE 11.5 mph - N/A   Mostly Cloudy
3:00 PM 23.0 °F 11.7 °F 15.8 °F 74% 30.07 in 20.0 mi SE 11.5 mph - N/A   Overcast
4:00 PM 23.0 °F 13.9 °F 15.8 °F 74% 30.05 in 20.0 mi SE 8.1 mph - N/A   Overcast
5:00 PM 22 °F - 16 °F 67% 30.00 in 10 mi SE 5.8 mph - -  
5:00 PM 23.0 °F 15.8 °F 15.8 °F 74% 30.00 in 20.0 mi ESE 5.8 mph - N/A   Overcast
7:00 PM 19.4 °F - 15.8 °F 86% 29.93 in 15.0 mi South 2.3 mph - N/A   Overcast
8:00 PM 19.4 °F 14.3 °F 15.8 °F 86% 29.91 in 15.0 mi ENE 3.5 mph - N/A   Overcast
9:00 PM 21.2 °F - 15.8 °F 80% 29.89 in 15.0 mi Calm Calm - N/A   Overcast
10:00 PM 19.4 °F 8.6 °F 15.8 °F 86% 29.87 in 15.0 mi South 9.2 mph - N/A   Overcast
11:00 PM 22 °F - 16 °F 69% 29.83 in 10 mi South 9.2 mph - -  
11:00 PM 21.2 °F 10.9 °F 15.8 °F 80% 29.82 in 9.0 mi South 9.2 mph - N/A   Mostly Cloudy